Starlink 35630

operational
NORAD ID: 66131 Int'l Des: 2025-237 Owner: SPXS Country: US Constellation: starlink
LEOCIRCULAR

Starlink 35630について

説明を読み込み中...

リアルタイム位置

3D地球を読み込み中...

次回通過

高度履歴

Altitude vs Time

uPlot chart will show altitude changes over time

軌道要素

1 66131U 25237T 25350.91670139 -.00004332 00000-0 -98395-4 0 9999
2 66131 53.1596 67.8010 0001291 79.7905 343.7925 15.39611315 5856
Epoch: Dec 16, 2025 • Age: 12 hours

現在のステータス

高度 447.1 km
速度 7.65 km/s
衛星直下点 11.08°N, 166.26°W
打ち上げ日 Oct 22, 2025
運用期間 0.1 years
タイプ internet

技術仕様

分類 Payload
質量 575.00 kg
乾燥質量 530.00 kg
総質量 575.00 kg
長さ 0.30 m
直径 4.10 m
スパン 29.00 m
形状 Box + pan
製造者 SPXS
バスタイプ Starlink V2MO
フェーズステータス In Orbit
所有者/国 SPXS/US

大規模コンステレーション

Loading constellations...